User: anonymous   Login
Location: Unspecified
(0.0000°N, 0.0000°E)
Time: 16:07:38
(UTC+00:00)
Language:

DUCHIFAT 1 - Orbit

View from above orbital plane
View from above orbital plane
View from above satellite
View from above satellite

Ground track
Ground track

The orbit data is extracted from the following two-line orbital elements,

1 40021U 14033M   19080.73271131  .00000510  00000-0  58049-4 0  9997
2 40021  97.9225   5.0474 0012760 350.3465   9.7506 14.90551218258294
Epoch (UTC): 21 March 2019 17:35:06
Eccentricity: 0.0012760
inclination: 97.9225°
perigee height: 587 km
apogee height: 605 km
right ascension of ascending node: 5.0474°
argument of perigee: 350.3465°
revolutions per day: 14.90551218
mean anomaly at epoch: 9.7506°
orbit number at epoch: 25829

The dashed part of the orbit path shows where the satellite is in the earth's shadow,  

DLR